Change the Weather History Date:

Sunday, January 1, 2012

  Actual Average Record
Temperature  
Mean Temperature 46 °F -  
Max Temperature 60 °F 44 °F 89 °F (2007)
Min Temperature 33 °F 29 °F 12 °F (1977)
Degree Days  
Heating Degree Days 18    
Moisture  
Dew Point 36 °F    
Average Humidity 67    
Maximum Humidity 100    
Minimum Humidity 36    
Precipitation  
Precipitation 0.00 in - - ()
Sea Level Pressure  
Sea Level Pressure 29.97 in    
Wind  
Wind Speed 3 mph (SW)    
Max Wind Speed 16 mph    
Max Gust Speed 25 mph    
Visibility 10 miles    
Events      
Averages and records for this station are not official NWS values.
T = Trace of Precipitation, MM = Missing Value Source: NWS Daily Summary

Daily Weather History Graph

Daily Weather History Graph

Search for Another Location

Airport or City:

Trip Planner

Search our weather history database for the weather conditions in past years. The results will help you decide how hot, cold, wet, or windy it might be!

Date:

Astronomy

Jan. 01, 2012 Rise Set
Actual Time 7:26 AM EST 4:55 PM EST
Civil Twilight 6:56 AM EST 5:25 PM EST
Nautical Twilight 6:23 AM EST 5:59 PM EST
Astronomical Twilight 5:50 AM EST 6:31 PM EST
Moon 11:41 AM EST (1/1) 12:21 AM EST (1/1)
Length of Visible Light 10h 29m
Length of Day
9h 29m
First Quarter, 54% of the Moon is Illuminated
Jan 1
First Quarter
Jan 9
Full
Jan 16
Last Quarter
Jan 23
New
Jan 30
First Quarter

Hourly Weather History & Observations

Time (EST) Temp. Windchill Dew Point Humidity Pressure Visibility Wind Dir Wind Speed Gust Speed Precip Events Conditions
1:00 AM 42.8 °F - 37.4 °F 81% 30.12 in 10.0 mi Calm Calm - N/A   Overcast
1:20 AM 42.8 °F - 37.4 °F 81% 30.13 in 10.0 mi Calm Calm - N/A   Overcast
1:40 AM 44.6 °F - 37.4 °F 76% 30.13 in 10.0 mi Calm Calm - N/A   Overcast
1:55 AM 42.8 °F - 37.4 °F 81% 30.12 in 10.0 mi Calm Calm - N/A   Overcast
2:55 AM 39.2 °F 37.0 °F 35.6 °F 87% 30.12 in 10.0 mi NNE 3.5 mph - N/A   Clear
3:15 AM 41.0 °F - 37.4 °F 87% 30.12 in 10.0 mi Calm Calm - N/A   Clear
3:35 AM 39.2 °F - 35.6 °F 87% 30.12 in 10.0 mi Calm Calm - N/A   Clear
3:55 AM 37.4 °F - 35.6 °F 93% 30.12 in 10.0 mi Calm Calm - N/A   Clear
4:15 AM 37.4 °F - 35.6 °F 93% 30.11 in 10.0 mi Calm Calm - N/A   Clear
4:30 AM 35.6 °F - 33.8 °F 93% 30.11 in 10.0 mi Calm Calm - N/A   Clear
4:50 AM 35.6 °F - 33.8 °F 93% 30.12 in 10.0 mi Calm Calm - N/A   Clear
5:10 AM 35.6 °F - 33.8 °F 93% 30.12 in 10.0 mi Calm Calm - N/A   Clear
5:30 AM 35.6 °F - 33.8 °F 93% 30.12 in 10.0 mi Calm Calm - N/A   Clear
5:50 AM 35.6 °F - 33.8 °F 93% 30.13 in 10.0 mi Calm Calm - N/A   Clear
6:10 AM 33.8 °F - 33.8 °F 100% 30.13 in 10.0 mi Calm Calm - N/A   Clear
6:30 AM 33.8 °F - 32.0 °F 93% 30.14 in 10.0 mi Calm Calm - N/A   Clear
6:45 AM 33.8 °F - 33.8 °F 100% 30.13 in 10.0 mi Calm Calm - N/A   Clear
7:05 AM 33.8 °F - 32.0 °F 93% 30.13 in 7.0 mi Calm Calm - N/A   Clear
7:25 AM 33.8 °F - 32.0 °F 93% 30.13 in 3.0 mi Calm Calm - N/A   Clear
7:45 AM 33.8 °F - 32.0 °F 93% 30.12 in 5.0 mi Calm Calm - N/A   Clear
8:05 AM 33.8 °F - 33.8 °F 100% 30.12 in 5.0 mi Calm Calm - N/A   Clear
8:25 AM 33.8 °F - 33.8 °F 100% 30.11 in 5.0 mi Calm Calm - N/A   Clear
8:45 AM 37.4 °F - 35.6 °F 93% 30.11 in 7.0 mi Calm Calm - N/A   Clear
9:40 AM 48.2 °F - 37.4 °F 66% 30.10 in 10.0 mi Calm Calm - N/A   Clear
10:00 AM 50.0 °F - 35.6 °F 58% 30.09 in 10.0 mi South 8.1 mph - N/A   Clear
10:20 AM 50.0 °F - 35.6 °F 58% 30.07 in 10.0 mi South 8.1 mph - N/A   Clear
10:40 AM 51.8 °F - 35.6 °F 54% 30.05 in 10.0 mi South 8.1 mph - N/A   Clear
11:00 AM 53.6 °F - 35.6 °F 51% 30.04 in 10.0 mi South 10.4 mph 18.4 mph N/A   Clear
11:15 AM 53.6 °F - 35.6 °F 51% 30.02 in 10.0 mi South 10.4 mph - N/A   Clear
11:35 AM 53.6 °F - 35.6 °F 51% 29.99 in 10.0 mi South 10.4 mph - N/A   Clear
11:55 AM 55.4 °F - 35.6 °F 47% 29.97 in 10.0 mi South 10.4 mph 16.1 mph N/A   Clear
12:55 PM 59.0 °F - 35.6 °F 42% 29.90 in 10.0 mi South 10.4 mph 16.1 mph N/A   Clear
1:15 PM 59.0 °F - 35.6 °F 42% 29.89 in 10.0 mi South 10.4 mph - N/A   Clear
1:50 PM 60.8 °F - 33.8 °F 36% 29.87 in 10.0 mi SW 6.9 mph - N/A   Scattered Clouds
2:10 PM 59.0 °F - 35.6 °F 42% 29.86 in 10.0 mi SSW 10.4 mph 19.6 mph N/A   Mostly Cloudy
2:30 PM 59.0 °F - 35.6 °F 42% 29.84 in 10.0 mi SSW 10.4 mph - N/A   Overcast
3:25 PM 60.8 °F - 33.8 °F 36% 29.78 in 10.0 mi South 12.7 mph 20.7 mph N/A   Mostly Cloudy
3:45 PM 60.8 °F - 35.6 °F 39% 29.80 in 10.0 mi South 5.8 mph - N/A   Scattered Clouds
4:45 PM 59.0 °F - 35.6 °F 42% 29.83 in 10.0 mi SW 3.5 mph - N/A   Overcast
5:05 PM 57.2 °F - 39.2 °F 51% 29.82 in 10.0 mi Calm Calm - N/A   Overcast
5:25 PM 55.4 °F - 41.0 °F 58% 29.78 in 10.0 mi South 3.5 mph - N/A   Overcast
5:40 PM 57.2 °F - 39.2 °F 51% 29.76 in 10.0 mi South 6.9 mph - N/A   Overcast
6:00 PM 59.0 °F - 37.4 °F 45% 29.76 in 10.0 mi Calm Calm - N/A   Overcast
6:20 PM 57.2 °F - 39.2 °F 51% 29.76 in 10.0 mi SSW 4.6 mph - N/A   Mostly Cloudy
6:40 PM 57.2 °F - 41.0 °F 55% 29.77 in 10.0 mi WSW 4.6 mph - N/A   Scattered Clouds
7:20 PM 55.4 °F - 41.0 °F 58% 29.77 in 10.0 mi SW 3.5 mph - N/A   Scattered Clouds
7:40 PM 55.4 °F - 42.8 °F 63% 29.78 in 10.0 mi West 3.5 mph - N/A   Mostly Cloudy
7:55 PM 55.4 °F - 44.6 °F 67% 29.78 in 10.0 mi SW 3.5 mph - N/A   Overcast
8:15 PM 55.4 °F - 44.6 °F 67% 29.78 in 10.0 mi SW 4.6 mph - N/A   Overcast
8:35 PM 55.4 °F - 44.6 °F 67% 29.79 in 10.0 mi West 4.6 mph - N/A   Overcast
8:55 PM 57.2 °F - 42.8 °F 59% 29.79 in 10.0 mi West 10.4 mph 20.7 mph N/A   Overcast
9:15 PM 55.4 °F - 37.4 °F 51% 29.80 in 10.0 mi WNW 13.8 mph 24.2 mph N/A   Mostly Cloudy
9:35 PM 55.4 °F - 33.8 °F 44% 29.81 in 10.0 mi WNW 16.1 mph 25.3 mph N/A   Scattered Clouds
9:55 PM 53.6 °F - 32.0 °F 44% 29.81 in 10.0 mi WNW 9.2 mph 23.0 mph N/A   Clear
10:05 PM 53.6 °F - 32.0 °F 44% 29.81 in 10.0 mi NW 10.4 mph 19.6 mph N/A   Clear
10:25 PM 51.8 °F - 28.4 °F 41% 29.81 in 10.0 mi NW 13.8 mph 19.6 mph N/A   Clear
10:50 PM 51.8 °F - 28.4 °F 41% 29.82 in 10.0 mi NW 12.7 mph 20.7 mph N/A   Clear
11:10 PM 50.0 °F - 28.4 °F 43% 29.83 in 10.0 mi WNW 8.1 mph 19.6 mph N/A   Clear